Date String (YYYY-MM-DD hh:mm:ss) UTC,Instrument flags,Ambient pressure (hPa),Sample flow (lpm),Bypass flow (lpm),Sample temperature (°C),Ambient temperature (°C),ASC tube jacket temperature (°C),LED temperature (°C),Box temperature (°C),Sample RH (%),Span deviation,Mass concentration (μg/m³),Mass concentration (μg/m³),Mass concentration (μg/m³)
DateTimeUTC,F1_M11,P_M11,Q1_M11,Q2_M11,T1_M11,T2_M11,T3_M11,T4_M11,T5_M11,U1_M11,ZSPAN_M11,X0_M11,X2_M11,X1_M11
2022-02-09 15:00:00,,0827.9,5.01,0.00,22.9,22.1,00.0,31.8,24.6,09.0,0000.0,0008.65,0003.31,0002.44
2022-02-09 15:01:00,,0827.9,5.01,0.00,22.9,22.1,00.0,31.8,24.7,08.9,0000.0,0008.25,0003.36,0002.46
2022-02-09 15:02:00,,0828.0,4.99,0.00,22.9,22.1,00.0,31.8,24.7,09.1,0000.0,0008.20,0003.40,0002.49
2022-02-09 15:03:00,,0828.0,5.02,0.00,22.9,22.1,00.0,31.8,24.7,09.0,0000.0,0008.25,0003.43,0002.52
2022-02-09 15:04:00,,0828.0,4.99,0.00,22.9,22.1,00.0,31.8,24.7,09.3,0000.0,0008.82,0003.53,0002.56
2022-02-09 15:05:00,,0828.0,5.00,0.00,22.9,22.1,00.0,31.8,24.7,09.1,0000.0,0008.75,0003.58,0002.59
2022-02-09 15:06:00,,0828.0,5.01,0.00,22.9,22.1,00.0,31.8,24.7,09.1,0000.0,0008.32,0003.61,0002.63
2022-02-09 15:07:00,,0827.9,4.99,0.00,22.9,22.1,00.0,31.8,24.7,09.2,0000.0,0008.54,0003.69,0002.64
2022-02-09 15:08:00,,0827.9,4.99,0.00,22.9,22.2,00.0,31.8,24.7,09.1,0000.0,0008.75,0003.69,0002.65
2022-02-09 15:09:00,,0828.0,5.00,0.00,22.9,22.2,00.0,31.8,24.7,09.1,0000.0,0009.22,0003.70,0002.68
2022-02-09 15:10:00,,0827.9,5.00,0.00,22.9,22.2,00.0,31.8,24.7,09.1,0000.0,0009.93,0003.70,0002.70
2022-02-09 15:11:00,,0828.0,5.00,0.00,22.9,22.2,00.0,31.8,24.7,09.2,0000.0,0010.57,0003.79,0002.75
2022-02-09 15:12:00,,0827.9,5.01,0.00,22.9,22.2,00.0,31.8,24.7,09.0,0000.0,0011.24,0003.88,0002.78
2022-02-09 15:13:00,,0828.0,4.99,0.00,22.9,22.2,00.0,31.8,24.8,09.0,0000.0,0011.29,0003.86,0002.77
2022-02-09 15:14:00,,0827.9,5.02,0.00,22.9,22.2,00.0,31.8,24.8,09.2,0000.0,0011.70,0003.87,0002.78
2022-02-09 15:15:00,,0827.9,4.99,0.00,22.9,22.2,00.0,31.8,24.8,09.1,0000.0,0012.36,0003.84,0002.79
2022-02-09 15:16:00,,0828.0,5.01,0.00,22.9,22.2,00.0,31.8,24.7,09.1,0000.0,0012.83,0003.83,0002.81
2022-02-09 15:17:00,,0828.0,4.99,0.00,22.9,22.2,00.0,31.8,24.8,09.4,0000.0,0013.03,0003.83,0002.82
2022-02-09 15:18:00,,0827.9,5.01,0.00,22.9,22.2,00.0,31.9,24.8,09.3,0000.0,0012.80,0003.80,0002.83
2022-02-09 15:19:00,,0828.0,5.00,0.00,22.9,22.2,00.0,31.9,24.8,09.4,0000.0,0012.71,0003.82,0002.86
2022-02-09 15:20:00,,0827.9,4.99,0.00,23.0,22.2,00.0,31.9,24.8,09.4,0000.0,0012.16,0003.77,0002.89
2022-02-09 15:21:00,,0827.9,5.01,0.00,23.0,22.2,00.0,31.9,24.8,09.4,0000.0,0011.38,0003.75,0002.91
2022-02-09 15:22:00,,0827.9,5.00,0.00,23.0,22.2,00.0,31.9,24.8,09.5,0000.0,0010.96,0003.71,0002.93
2022-02-09 15:23:00,,0828.0,5.00,0.00,23.0,22.3,00.0,31.9,24.8,09.4,0000.0,0010.81,0003.64,0002.94
2022-02-09 15:24:00,,0827.9,4.99,0.00,23.0,22.3,00.0,31.9,24.8,09.5,0000.0,0010.70,0003.61,0002.97
2022-02-09 15:25:00,,0828.0,5.01,0.00,23.0,22.3,00.0,31.9,24.8,09.5,0000.0,0010.19,0003.63,0002.99
2022-02-09 15:26:00,,0827.9,5.00,0.00,23.0,22.3,00.0,31.9,24.8,09.4,0000.0,0009.35,0003.62,0002.98
2022-02-09 15:27:00,,0827.9,5.01,0.00,23.0,22.3,00.0,31.9,24.8,09.5,0000.0,0009.18,0003.63,0002.98
2022-02-09 15:28:00,,0827.9,5.00,0.00,23.0,22.3,00.0,31.9,24.8,09.3,0000.0,0008.51,0003.62,0003.00
2022-02-09 15:29:00,,0827.9,5.00,0.00,23.0,22.3,00.0,31.9,24.9,09.3,0000.0,0008.34,0003.57,0003.01
2022-02-09 15:30:00,,0827.8,4.99,0.00,23.0,22.3,00.0,31.9,24.9,09.3,0000.0,0008.19,0003.52,0002.99
2022-02-09 15:31:00,,0827.8,4.99,0.00,23.0,22.4,00.0,31.9,24.9,09.6,0000.0,0008.20,0003.52,0002.97
2022-02-09 15:32:00,,0827.8,5.01,0.00,23.1,22.4,00.0,31.9,24.9,09.5,0000.0,0008.15,0003.51,0002.97
2022-02-09 15:33:00,,0827.8,4.98,0.00,23.1,22.4,00.0,32.0,24.9,09.5,0000.0,0008.18,0003.50,0002.95
2022-02-09 15:34:00,,0827.8,5.00,0.00,23.1,22.4,00.0,32.0,24.9,09.6,0000.0,0007.68,0003.51,0002.95
2022-02-09 15:35:00,,0827.7,5.00,0.00,23.1,22.4,00.0,32.0,24.9,09.9,0000.0,0007.56,0003.51,0002.96
2022-02-09 15:36:00,,0827.7,4.99,0.00,23.1,22.4,00.0,32.0,24.9,09.7,0000.0,0007.49,0003.52,0002.97
2022-02-09 15:37:00,,0827.7,5.00,0.00,23.1,22.4,00.0,32.0,24.9,09.9,0000.0,0007.29,0003.51,0002.98
2022-02-09 15:38:00,,0827.8,5.02,0.00,23.1,22.4,00.0,32.0,25.0,09.8,0000.0,0006.54,0003.50,0003.00
2022-02-09 15:39:00,,0827.7,5.00,0.00,23.1,22.4,00.0,32.0,25.0,09.7,0000.0,0006.38,0003.48,0003.02
2022-02-09 15:40:00,,0827.7,5.01,0.00,23.2,22.5,00.0,32.0,25.0,09.7,0000.0,0007.21,0003.53,0003.01
2022-02-09 15:41:00,,0827.7,4.99,0.00,23.2,22.5,00.0,32.0,25.0,09.8,0000.0,0007.71,0003.57,0003.02
2022-02-09 15:42:00,,0827.7,4.99,0.00,23.2,22.5,00.0,32.0,25.0,09.8,0000.0,0007.94,0003.58,0003.03
2022-02-09 15:43:00,,0827.7,5.00,0.00,23.2,22.5,00.0,32.1,25.0,09.7,0000.0,0008.05,0003.61,0003.05
2022-02-09 15:44:00,,0827.7,5.01,0.00,23.2,22.5,00.0,32.1,25.1,09.8,0000.0,0008.28,0003.64,0003.08
2022-02-09 15:45:00,,0827.7,4.98,0.00,23.2,22.6,00.0,32.1,25.0,09.9,0000.0,0008.76,0003.66,0003.11
2022-02-09 15:46:00,,0827.7,5.01,0.00,23.2,22.6,00.0,32.1,25.1,09.7,0000.0,0009.32,0003.65,0003.10
2022-02-09 15:47:00,,0827.7,5.01,0.00,23.3,22.6,00.0,32.1,25.1,09.5,0000.0,0009.50,0003.64,0003.09
2022-02-09 15:48:00,,0827.7,4.99,0.00,23.3,22.6,00.0,32.1,25.1,09.4,0000.0,0009.71,0003.57,0003.01
2022-02-09 15:49:00,,0827.7,5.01,0.00,23.3,22.6,00.0,32.1,25.1,09.5,0000.0,0009.87,0003.55,0002.96
2022-02-09 15:50:00,,0827.6,5.00,0.00,23.3,22.6,00.0,32.1,25.1,09.5,0000.0,0010.20,0003.54,0002.92
2022-02-09 15:51:00,,0827.7,5.00,0.00,23.3,22.6,00.0,32.1,25.1,09.7,0000.0,0010.41,0003.51,0002.89
2022-02-09 15:52:00,,0827.7,4.99,0.00,23.3,22.6,00.0,32.2,25.1,09.7,0000.0,0010.22,0003.52,0002.86
2022-02-09 15:53:00,,0827.6,5.02,0.00,23.3,22.6,00.0,32.2,25.1,09.8,0000.0,0010.02,0003.50,0002.82
2022-02-09 15:54:00,,0827.6,5.00,0.00,23.3,22.6,00.0,32.2,25.1,10.1,0000.0,0010.42,0003.49,0002.78
2022-02-09 15:55:00,,0827.6,5.00,0.00,23.3,22.6,00.0,32.2,25.1,10.4,0000.0,0010.54,0003.48,0002.73
2022-02-09 15:56:00,,0827.6,4.99,0.00,23.3,22.6,00.0,32.2,25.0,10.5,0000.0,0010.06,0003.46,0002.71
2022-02-09 15:57:00,,0827.6,5.01,0.00,23.3,22.6,00.0,32.2,25.0,10.4,0000.0,0009.50,0003.48,0002.73
2022-02-09 15:58:00,,0827.7,5.00,0.00,23.3,22.5,00.0,32.2,25.0,10.6,0000.0,0009.34,0003.52,0002.76
2022-02-09 15:59:00,,0827.6,4.98,0.00,23.3,22.5,00.0,32.2,25.1,10.7,0000.0,0009.08,0003.60,0002.87
